SL-16 R/B, 23343

Orbit data source: Space-Track

SL-16 R/B, 23343 is space debris in SSO originally from a launch on Fri, 04 Nov 1994 UTC launched from the Tyuratam Missile And Space Complex (TTMTR). Debris objects in space refer to the collection of defunct objects orbiting the Earth. Examples of debris include non-operational satellites, rocket bodies, and fragments generated from explosions, collisions, or faulty payload assembly.

Loading next visibility...
Identifier
23343, 1994-074B
Orbit
SSO
Country
Flag of CISCIS
Related business
Manufacturer
Yuzhnoe
Mission
Spacecraft
Bus & Motor
11S772, Unknown motor
Mass
9,000 kg wet, 9,000 kg dry
Launch date (UTC)
1994-11-04 (32 years ago)
Launch vehicle
Unknown
Launch site
Tyuratam Missile And Space Complex (TTMTR)
Object type
Payload
Rocket body
Debris
Shape & HBR
Cyl, 5.2 m
Radar Cross Section
37.829 m², Large (>1 m²)

Expand to show TLE details & history
Last TLE update: 13 hours ago

TLE from 13 hours ago
0 SL-16 R/B
1 23343U 94074B   26248.07992017  .00000172  00000-0  29601-4 0  9998
2 23343  97.6968 271.4627 0006653  10.1850  16.7941 14.79559196713775
Epoch: 2026-09-05T01:55Z
TLE epoch observation values (Epoch: 2026-09-05T01:55:05.102Z)
Latitude
26.77677°
Longitude
-105.39243°
Altitude
629.607 km
Speed
7.548 km/s
True Right ascension
17h 50m 17s
True Declination
26° 38' 10"
Sunlit
Object was in daylight at epoch
Visualization orbit readout
Latitude
Unknown
Longitude
Unknown
Altitude
Unknown
Speed
Unknown
Apparent Right ascension
Unknown
Apparent Declination
Unknown
Sunlit
N/A
Visualization observer readout
Local Sidereal Time
06:30:53
Azimuth
Unknown
Elevation
Unknown
Doppler factor
Unknown
Orbital elements
Apogee altitude
632.409 km
Perigee altitude
623.087 km
Semi-major axis
7,005.885 km
Eccentricity
0.00067
Inclination
97.6968°
RAAN
271.4627°
Arg. of periapsis
10.185°
True anomaly
16.81615°
Mean anomaly
16.7941°
Eccentric anomaly
16.80512°
Mean motion
3.70125 °/min
Orbital period
97.26 mins
BSTAR
0.000029601
Loading maneuver chart data...
Computing Atmospheric mass density...

Documentation

Showing up to 5 results
|